カタログに戻る

TITAN 3C TRANSTAGE DEB

LostHEO
NORAD 28553·DEBRIS·🇺🇸 United States

打ち上げ Dec 21, 1965 から Cape Canaveral Space Force Station

Loading…

次のパス (今後24時間)

TLE

古いSource: Space-Track

元期: Nov 7, 2025, 10:19 UTC

1 28553U 65108BU  25311.42991332  .00000046  00000-0  81786-3 0  9991
2 28553  26.6303 277.8000 6780846 250.8644 336.3340  2.72816909215045

AllMySatでTITAN 3C TRANSTAGE DEBをリアルタイム追跡

Download on the App Store